User: anonymous   Login
Location: ?????
(54.9266°N, 38.5527°E)
Time: 05:45:42
(UTC+00:00)
Language:

CZ-2C R/B - Orbit

View from above orbital plane
View from above orbital plane
View from above satellite
View from above satellite

Ground track
Ground track

The orbit data is extracted from the following two-line orbital elements,

1 36089U 09061B   24174.52257167  .00000613  00000-0  16003-3 0  9998
2 36089  98.3589 140.3625 0081031  99.3420 261.6948 14.51030799772934
Epoch (UTC): 22 June 2024 12:32:30
Eccentricity: 0.0081031
inclination: 98.3589°
perigee height: 665 km
apogee height: 780 km
right ascension of ascending node: 140.3625°
argument of perigee: 99.3420°
revolutions per day: 14.51030799
mean anomaly at epoch: 261.6948°
orbit number at epoch: 77293

The dashed part of the orbit path shows where the satellite is in the earth's shadow,  

DLR